GEFSCGP_500_meanwind_090.txt.gz
Wind_Speed
12 11 11 10 10 10 10 10 10 11 12 13 14 16 16 16 18 19 19 20 21 21 20 18 17 15 15 15 16 17 18 20 22 23 25 26 27 28 29 30 31 32 33 33
11 10 10 10 9 8 8 8 9 9 10 10 12 14 14 14 15 15 15 15 15 16 15 14 13 13 13 15 16 17 19 21 23 24 26 28 29 30 31 32 32 33 33 33
10 9 8 8 7 7 7 8 8 8 9 10 11 11 11 12 12 12 12 11 12 11 11 12 12 12 13 15 17 18 20 22 24 26 27 29 30 31 32 33 33 34 34 34
7 7 7 7 7 7 7 8 9 10 10 10 10 10 10 10 9 9 9 10 11 10 10 11 13 12 14 16 17 19 21 23 25 27 29 30 31 32 33 34 34 35 35 35
6 6 7 8 8 8 9 9 9 9 9 9 9 9 8 8 8 8 9 9 8 7 8 10 12 13 14 17 19 20 22 24 26 28 30 31 32 33 34 34 35 35 36 36
7 7 8 8 8 9 9 9 8 8 8 7 7 7 7 8 8 7 7 8 6 7 8 9 11 13 15 17 19 21 23 25 27 29 30 31 32 33 33 34 34 35 35 36
7 8 8 8 8 8 9 8 8 8 7 6 6 6 7 7 7 6 7 7 6 7 8 10 12 14 16 18 20 22 24 26 28 30 31 31 32 32 33 33 34 34 35 36
7 8 8 9 9 9 9 9 9 9 7 6 6 6 6 6 7 7 7 7 7 8 10 12 13 15 17 19 21 23 25 28 29 31 32 32 32 32 32 33 33 34 35 35
8 8 8 8 9 9 9 9 9 8 6 6 5 6 6 7 7 8 8 8 9 10 12 13 15 17 19 20 23 25 27 29 31 32 33 33 33 33 34 34 34 34 34 34
9 9 8 7 7 8 8 9 8 7 6 4 4 5 6 7 8 8 8 8 9 11 13 15 17 19 21 23 25 28 30 32 33 33 34 34 34 35 35 35 34 34 35 35
9 9 8 7 7 7 7 7 7 6 6 5 4 5 6 7 8 9 9 10 12 13 15 17 19 21 23 25 28 30 32 33 34 35 35 35 36 36 36 35 35 36 35 35
9 9 8 7 7 6 6 7 7 6 6 5 6 6 7 9 10 11 12 13 15 16 18 20 22 23 25 27 30 32 34 35 35 35 36 36 37 37 36 36 37 36 35 35
10 9 8 7 7 7 7 7 6 6 6 7 8 9 9 10 12 13 15 16 18 19 21 22 24 25 27 30 32 34 35 36 36 36 37 37 38 38 37 37 37 36 36 36
11 10 9 8 8 8 7 7 6 7 7 9 9 11 12 13 14 16 18 19 20 21 22 24 25 27 29 31 34 35 36 36 37 37 38 38 39 38 38 38 37 37 37 36
10 10 9 9 9 9 8 7 8 8 9 11 12 13 14 15 17 18 19 21 22 22 23 25 26 29 31 33 34 35 36 37 38 38 39 39 40 39 39 38 38 38 37 37
10 10 10 10 10 10 9 9 9 10 10 12 13 14 16 17 18 20 21 22 23 24 25 26 28 30 32 34 35 36 37 38 39 39 40 40 40 40 40 40 39 39 38 38
11 11 11 10 10 10 9 10 10 10 11 13 14 16 18 18 19 20 21 22 23 25 26 28 30 32 34 35 36 37 37 38 39 40 41 41 40 41 41 40 40 40 39 39
11 11 10 10 10 9 9 9 10 11 12 14 16 18 19 20 20 21 22 23 24 26 27 29 31 33 35 36 37 37 38 39 40 41 41 41 41 41 41 41 41 41 40 38
11 10 10 9 8 8 9 10 11 12 13 15 17 19 20 20 20 21 22 23 25 27 28 30 32 34 36 36 37 37 38 39 41 42 42 42 42 42 42 41 41 41 39 37
11 11 11 10 10 9 10 11 12 13 14 16 18 19 19 20 20 21 23 24 26 27 29 31 33 35 36 37 37 37 38 40 41 42 42 42 42 42 42 42 41 40 38 36
13 13 12 12 11 10 12 12 13 15 16 17 18 19 19 20 21 22 24 25 26 28 30 31 34 35 36 38 38 38 39 41 42 42 43 43 43 42 42 42 41 39 37 36
14 14 14 14 14 13 13 14 15 16 17 18 19 20 20 21 23 23 25 26 27 29 30 32 34 35 37 38 39 39 40 42 42 43 43 43 43 42 42 42 41 38 37 36
16 16 16 15 15 15 15 15 16 17 18 20 21 22 22 23 24 25 26 27 28 30 31 33 35 36 37 39 40 40 42 42 43 43 43 43 42 42 42 41 40 38 37 36
18 18 18 17 16 17 18 18 19 19 20 21 22 23 24 24 25 26 27 28 29 31 32 34 35 37 38 39 40 41 42 43 44 44 43 43 43 43 43 41 39 37 37 36
20 21 21 20 20 20 19 20 20 21 22 22 23 24 25 25 26 27 28 29 30 31 33 34 36 37 38 39 41 42 43 43 44 44 44 43 43 43 42 40 39 37 36 36
22 24 24 23 22 22 21 21 22 23 23 24 24 25 26 26 27 28 29 30 31 33 34 35 37 38 39 40 41 42 43 44 44 45 45 44 43 43 41 39 37 36 36 35

GEFSCGP_500_meanwind_096.txt.gz
Wind_Speed
11 10 9 9 9 9 10 11 12 13 13 13 12 12 11 11 11 12 13 14 15 16 17 18 18 17 15 14 13 12 12 13 14 15 16 17 18 20 21 22 23 24 25 26
10 9 9 9 9 9 10 11 11 12 11 12 12 11 11 11 11 10 10 10 11 12 12 12 12 12 12 13 12 12 13 14 15 16 17 19 20 21 22 24 24 26 27 27
9 9 10 9 9 9 10 10 11 11 11 11 10 10 10 10 10 9 8 8 8 9 9 9 9 10 10 11 11 12 13 15 16 18 19 21 22 23 24 25 26 26 27 28
9 9 9 9 9 9 10 10 10 11 11 11 11 11 10 10 9 8 7 6 7 7 8 8 8 8 9 10 12 13 15 17 18 20 22 23 24 25 26 26 27 28 28 29
9 9 9 8 8 9 9 9 10 10 9 9 9 9 9 9 9 8 7 6 7 7 7 7 7 8 10 11 13 15 16 18 20 21 23 24 25 26 26 27 28 29 29 30
9 9 9 9 9 9 9 9 9 10 9 8 9 8 9 9 9 8 7 7 6 6 7 7 8 9 11 13 14 16 18 19 21 22 24 25 26 26 27 28 29 30 30 30
9 10 10 9 9 9 9 8 8 9 9 9 9 8 8 9 8 8 7 7 7 7 8 9 10 11 13 14 16 17 19 20 22 23 24 25 26 27 28 28 29 29 30 30
8 9 10 9 9 9 8 8 6 6 7 9 9 9 9 8 8 8 8 8 8 8 9 11 12 13 14 15 17 18 19 21 22 24 24 25 25 26 27 28 28 29 29 30
8 9 10 9 9 8 8 7 8 7 7 7 9 9 9 9 9 8 8 9 9 10 11 12 13 14 15 17 18 19 20 22 23 23 23 24 25 26 27 27 28 28 28 29
9 9 11 10 9 8 8 7 6 4 5 5 8 9 10 9 8 8 8 9 10 11 12 13 14 15 16 17 18 19 20 22 22 22 23 25 25 26 26 27 27 28 29 29
10 9 10 10 9 8 7 7 6 5 5 2 6 8 9 8 8 9 9 10 11 13 14 15 15 16 16 17 18 19 21 21 22 22 23 24 25 26 26 27 28 28 28 28
10 9 9 10 9 8 7 6 5 4 5 4 4 8 9 9 9 10 10 11 12 13 14 15 15 16 16 17 19 20 21 21 22 23 24 25 26 27 28 29 29 29 30 30
10 9 7 9 10 9 8 8 6 6 5 5 4 9 10 10 10 11 11 12 13 13 14 14 15 16 17 18 19 20 21 22 23 24 25 26 27 28 29 30 31 31 31 31
11 10 9 10 11 11 9 9 8 7 6 7 7 9 11 11 11 11 12 12 13 13 14 15 15 16 17 19 20 21 22 23 24 25 26 27 28 29 30 32 32 33 33 33
11 10 10 11 11 10 10 10 10 9 9 9 10 10 11 12 12 12 13 13 14 14 14 15 16 17 18 19 21 22 23 24 25 26 27 28 30 31 32 33 34 34 35 35
12 11 11 11 11 11 11 11 12 11 11 11 11 12 12 12 12 13 13 14 14 15 15 16 17 18 19 21 22 23 24 25 26 27 28 30 31 33 34 35 36 36 37 37
13 12 11 10 11 11 11 12 13 12 12 12 12 13 13 13 14 14 14 15 15 15 16 17 18 19 20 22 23 24 25 26 28 29 30 31 33 34 35 36 37 38 39 39
13 12 11 10 11 11 12 12 11 11 11 12 13 14 15 15 15 15 15 15 16 16 17 18 19 21 22 23 24 25 26 28 29 31 32 33 34 35 36 37 38 39 40 39
14 13 12 12 11 11 12 12 11 10 11 13 13 15 15 15 16 16 16 16 17 17 19 20 21 22 23 24 25 26 28 29 30 32 33 34 36 37 38 39 40 40 40 39
15 14 14 13 12 11 14 13 11 11 12 14 15 16 16 16 17 17 17 17 18 19 20 21 22 23 24 25 26 27 29 30 32 33 34 36 37 39 40 41 41 41 40 39
16 16 16 15 14 14 16 14 14 13 15 16 17 17 17 17 17 18 19 19 19 20 21 23 24 24 25 26 27 28 30 32 33 35 36 37 39 41 42 42 42 41 40 39
18 18 18 17 17 18 18 17 16 17 18 19 19 19 19 19 19 19 20 21 21 22 23 24 25 26 27 28 28 30 32 34 35 36 37 39 41 43 43 44 43 42 40 39
20 20 21 20 20 20 19 19 19 19 19 20 21 21 21 21 21 21 22 23 23 24 25 26 27 28 29 30 31 32 34 35 37 38 39 41 43 44 44 44 43 42 41 39
22 21 21 21 21 21 21 20 21 20 21 21 22 23 23 23 23 24 24 25 25 26 28 28 29 30 31 32 32 34 35 37 38 39 41 43 44 45 45 44 43 42 40 38
23 22 21 22 22 22 22 22 22 22 22 23 24 24 25 25 26 27 27 27 27 28 30 31 31 31 32 33 34 36 37 39 40 41 43 44 45 45 45 44 43 41 39 38
23 23 22 23 23 23 23 23 24 24 24 25 25 26 27 28 28 29 30 30 30 30 32 33 33 34 35 36 37 38 39 40 41 43 44 45 45 46 46 44 42 40 38 37

GEFSCGP_500_meanwind_102.txt.gz
Wind_Speed
8 9 9 11 12 13 13 13 14 15 13 12 15 14 11 11 9 10 10 9 9 10 11 13 15 16 16 16 16 16 14 13 13 12 13 14 15 16 17 18 18 19 20 21
9 12 12 12 12 11 12 14 14 15 13 12 11 10 8 9 8 8 9 8 8 9 9 10 10 11 13 13 13 13 12 12 11 12 14 15 16 16 18 19 19 20 21 21
9 10 13 13 12 11 11 14 14 12 11 11 12 10 9 8 8 7 7 8 8 8 8 8 8 9 9 9 10 10 10 10 11 12 14 15 17 18 19 20 20 21 22 22
10 9 12 12 12 12 11 12 11 9 10 11 10 10 10 9 9 7 7 7 6 6 7 7 8 9 9 9 9 10 10 10 12 13 15 17 18 19 20 21 21 22 22 23
10 9 12 13 12 12 11 9 9 11 11 9 7 8 10 9 8 8 8 7 6 6 7 7 7 7 8 8 8 9 10 11 13 15 16 18 19 20 20 21 22 23 24 24
10 9 11 11 11 11 10 9 10 13 11 7 6 7 9 10 10 10 9 7 5 6 7 7 7 7 8 8 8 9 11 13 14 16 17 19 20 20 21 22 23 24 24 24
12 10 11 11 10 10 9 9 14 15 13 8 9 7 10 9 10 10 9 7 6 6 7 8 8 9 9 9 10 12 13 14 16 18 18 19 20 20 21 22 22 23 23 24
13 13 10 11 10 9 9 9 10 12 13 11 9 10 9 10 9 9 9 7 7 7 8 9 10 10 10 11 12 13 15 16 17 18 19 19 20 21 21 22 23 23 24 25
11 13 12 11 10 9 8 8 8 11 10 8 9 11 10 11 10 10 9 8 8 9 9 10 11 12 12 13 14 15 16 17 18 19 19 20 21 22 22 23 24 25 25 26
11 11 12 12 10 9 8 7 7 7 10 10 7 8 12 13 12 12 11 9 9 10 11 12 13 13 13 14 15 16 17 18 19 19 20 21 21 22 23 23 25 26 27 28
12 13 12 13 11 9 8 7 8 8 7 9 10 8 10 12 13 12 12 11 10 11 12 12 13 14 14 15 15 16 17 18 19 20 21 21 22 22 23 24 25 26 27 28
14 13 13 15 13 10 9 9 10 9 7 6 11 11 11 14 15 13 12 12 12 12 13 13 14 14 14 15 16 17 18 19 19 20 21 21 22 23 24 25 26 27 28 29
14 13 14 15 16 11 7 7 8 7 6 6 10 13 14 15 15 14 13 13 12 13 14 14 14 15 15 16 17 18 18 19 20 21 21 22 23 24 25 26 28 29 30 31
14 14 14 15 15 10 5 5 7 9 7 8 11 13 15 14 15 15 14 14 14 14 15 15 15 15 16 16 17 18 19 20 20 21 23 23 24 26 27 28 29 30 32 33
15 15 14 14 12 11 8 8 9 11 11 11 12 13 15 17 17 17 17 16 15 15 15 15 16 16 16 17 18 19 20 21 21 22 24 25 26 28 29 30 31 32 33 35
17 15 15 13 12 11 11 10 11 13 13 13 14 15 18 19 17 17 17 17 17 17 16 16 16 17 17 18 19 20 21 22 23 24 25 27 28 29 30 31 33 34 36 37
18 17 15 13 12 12 12 11 13 13 13 14 15 17 19 19 17 17 18 18 18 18 18 17 17 18 18 19 20 21 22 23 24 25 26 28 29 31 32 33 35 36 37 39
18 17 16 14 13 12 11 12 13 13 14 15 16 19 20 19 19 18 18 18 18 18 18 18 18 19 19 20 21 22 23 24 25 26 28 29 31 33 34 36 37 38 40 41
19 17 16 15 14 13 13 14 14 13 13 15 17 18 19 18 19 19 18 18 18 19 19 20 20 20 21 21 22 23 24 25 26 28 29 31 33 34 36 37 39 40 41 42
19 17 17 17 16 16 18 18 16 14 14 16 17 18 18 18 18 20 20 20 20 20 20 21 22 22 22 23 24 25 26 28 28 30 31 33 34 36 37 39 40 42 42 43
19 17 16 17 17 18 21 20 18 18 17 17 18 19 20 20 19 21 22 22 22 22 23 23 23 23 24 24 25 26 28 30 30 32 33 35 37 38 39 41 42 43 43 44
18 18 19 19 19 22 23 23 22 19 17 18 20 22 23 23 22 22 23 23 23 23 24 24 24 25 25 26 27 29 30 32 33 34 36 37 39 40 41 43 44 45 45 46
21 21 22 22 22 24 25 24 24 21 21 21 23 25 25 25 24 24 25 25 24 25 25 25 25 26 27 28 29 31 32 34 36 36 38 40 40 42 43 45 46 46 46 45
23 25 24 23 24 25 26 26 23 23 24 25 26 26 26 26 25 26 26 26 26 26 27 27 27 27 28 30 31 33 35 36 38 38 39 41 42 43 44 46 47 47 46 45
27 25 25 27 26 25 27 25 26 26 26 27 27 27 26 26 27 28 28 28 28 29 29 29 29 30 32 32 34 35 37 38 39 40 42 43 45 45 46 47 48 48 47 46
28 28 27 28 27 26 26 26 26 27 27 27 28 28 27 28 29 29 30 30 30 31 31 31 31 33 34 35 36 38 39 40 41 43 44 45 46 46 47 48 48 48 47 44

GEFSCGP_500_meanwind_108.txt.gz
Wind_Speed
10 8 6 8 9 9 11 12 13 14 14 15 13 12 11 9 9 8 6 5 3 2 0 2 2 3 4 4 4 4 5 6 5 5 6 6 7 7 8 9 10 11 11 12
11 8 7 8 8 10 11 12 12 13 14 14 13 12 10 8 8 6 5 3 2 1 0 2 0 2 2 3 3 4 4 4 3 4 5 5 6 7 8 9 10 10 11 11
11 8 8 9 10 10 10 12 13 15 14 14 12 10 8 7 7 6 5 3 2 3 2 2 1 2 1 1 2 2 2 2 3 4 4 5 6 7 7 8 9 10 11 11
10 9 9 9 10 10 11 11 11 12 13 11 9 7 7 6 7 7 6 3 2 3 3 3 2 1 2 1 1 1 1 2 3 3 4 5 6 7 7 7 8 9 10 11
9 9 9 9 8 9 11 10 9 10 10 6 5 5 7 6 6 6 5 4 4 3 4 4 3 3 2 2 2 1 1 1 2 3 5 6 6 6 7 8 9 9 10 11
9 9 8 8 9 9 10 9 9 9 8 6 4 4 5 6 6 4 4 3 3 4 4 5 5 4 4 4 3 3 2 3 3 4 5 6 7 7 8 9 10 10 11 13
8 7 7 7 9 10 10 10 10 10 8 7 5 4 4 4 4 3 3 3 4 4 4 5 5 5 4 4 4 4 4 4 4 5 6 6 7 8 10 10 11 12 13 14
8 7 6 7 7 9 10 10 10 10 7 7 5 4 4 3 3 4 4 3 4 4 5 5 5 5 4 4 4 4 4 5 5 6 7 7 9 10 11 11 12 13 14 16
10 8 8 9 8 9 8 10 10 10 9 7 4 3 2 3 4 4 4 5 4 4 4 5 4 4 4 4 4 4 4 5 6 6 7 9 10 11 12 12 13 15 16 17
12 11 10 9 9 9 10 10 11 11 10 7 5 4 1 2 2 3 3 4 4 4 4 4 4 3 3 3 3 4 4 5 6 7 8 10 11 12 13 14 15 17 18 20
15 15 13 12 12 12 12 12 12 13 12 10 8 4 3 2 2 2 2 3 3 3 3 4 4 3 3 3 3 5 5 6 7 8 9 11 12 13 14 16 17 19 20 22
17 17 16 14 14 14 13 14 15 15 13 12 10 7 4 4 3 2 3 3 3 2 3 3 3 3 4 4 4 5 6 7 8 9 11 12 14 15 16 18 19 21 22 24
18 18 17 16 15 15 14 15 14 14 13 13 12 9 8 6 3 2 3 3 3 3 2 3 4 4 4 4 5 6 7 8 10 11 12 14 15 16 18 19 21 22 24 26
19 18 17 16 16 15 14 15 16 15 14 12 10 9 7 6 4 4 4 4 3 4 4 4 5 5 5 5 6 7 9 10 11 12 13 15 16 18 20 21 23 24 26 28
20 19 19 18 17 17 17 16 16 16 14 14 12 11 10 9 8 7 6 5 4 4 5 6 6 6 6 7 8 9 10 12 13 14 15 17 18 20 22 24 25 27 28 29
20 20 20 19 18 18 18 17 16 16 16 15 15 14 12 11 9 9 8 7 6 6 7 8 8 8 8 9 10 11 13 14 15 16 17 18 20 22 24 26 28 29 30 31
22 20 20 19 18 18 18 17 17 17 17 17 17 15 14 13 11 11 10 9 8 8 8 9 10 11 10 11 13 14 15 16 18 19 20 21 22 24 26 27 29 30 31 33
22 22 20 19 20 20 16 17 17 18 18 18 18 16 15 12 11 11 10 10 10 10 10 11 12 13 13 14 15 16 17 19 20 21 22 24 25 26 28 29 30 31 33 34
22 23 22 21 20 18 18 18 18 19 20 19 18 17 15 12 11 11 11 11 12 12 13 13 14 14 16 16 17 18 20 21 22 23 24 26 26 27 29 30 32 33 34 35
22 22 22 22 21 20 19 19 20 20 20 20 19 18 16 15 13 12 13 14 13 14 15 16 16 17 18 19 19 21 22 23 24 25 26 27 28 29 31 32 33 34 35 36
21 20 20 20 22 21 20 20 20 20 20 19 20 20 19 18 16 15 15 16 16 17 17 18 19 19 20 21 22 23 24 25 26 27 28 29 30 32 33 34 35 36 37 38
22 21 19 19 21 20 18 19 21 21 21 21 20 19 19 17 17 17 18 18 19 20 20 20 20 21 22 23 24 25 26 27 28 29 30 31 32 33 34 35 36 37 39 40
21 21 20 20 20 20 18 18 20 20 21 21 21 20 21 20 20 20 20 20 21 21 21 22 23 23 24 25 26 28 29 29 30 31 32 33 34 35 36 37 38 39 40 41
22 22 23 24 23 20 19 19 20 19 21 21 22 22 23 22 21 21 21 21 22 22 23 23 24 24 26 27 28 29 30 31 32 33 34 34 35 36 37 38 40 41 42 43
22 22 23 22 21 21 23 22 22 23 23 23 23 22 24 23 21 22 23 23 23 24 25 25 26 27 28 29 30 31 32 33 33 35 36 37 38 38 39 40 41 42 43 44
24 24 23 22 22 23 23 23 22 21 21 20 20 22 22 21 21 23 23 24 25 26 27 27 28 29 30 30 31 33 34 34 35 36 37 38 39 40 41 42 43 44 45 45

GEFSCGP_500_meanwind_114.txt.gz
Wind_Speed
13 12 12 13 13 13 12 12 12 12 12 12 12 12 12 11 11 10 8 5 4 3 3 5 6 9 10 11 10 10 8 6 6 6 6 6 6 6 7 8 8 8 8 9
13 12 14 14 13 13 12 12 11 11 11 12 11 10 10 9 9 8 6 5 3 1 2 3 5 7 9 9 8 8 7 6 5 5 4 5 5 6 6 6 6 6 7 7
13 13 14 14 13 12 11 11 11 11 11 11 11 9 9 8 8 6 5 4 2 1 2 3 5 7 7 7 8 7 7 6 5 4 3 3 3 4 4 4 4 5 6 6
14 14 14 14 14 13 11 11 11 10 10 10 10 9 7 7 7 5 4 2 1 2 3 3 5 6 5 6 7 7 7 6 5 4 3 3 2 2 2 2 3 4 5 6
13 14 14 14 14 13 12 11 11 10 11 10 10 8 7 7 7 5 4 3 1 2 3 4 5 5 5 5 7 8 7 6 5 4 3 2 2 1 2 2 3 4 5 6
14 14 14 13 13 12 11 12 11 11 10 9 9 9 8 8 7 6 4 2 1 2 2 3 4 4 5 6 7 7 7 6 5 4 3 2 1 1 1 2 3 4 5 7
13 14 13 12 12 11 11 11 12 11 9 8 8 9 8 7 6 6 4 2 2 3 3 4 4 4 5 6 7 7 7 6 5 4 3 2 1 0 1 3 4 5 6 7
14 13 12 11 11 11 10 10 11 10 9 8 8 8 7 7 6 5 4 3 3 3 4 5 5 5 6 7 7 7 6 5 5 4 3 2 1 1 2 4 5 6 7 8
14 13 13 12 12 12 11 10 10 11 9 9 8 7 7 7 6 5 4 4 4 4 5 6 6 6 6 7 7 7 6 5 4 4 2 1 0 2 3 5 6 7 9 10
15 15 14 14 14 13 12 12 12 12 11 9 8 8 8 7 6 5 4 4 5 5 5 6 6 6 6 6 6 6 5 5 4 3 2 2 2 3 5 6 8 9 11 13
18 18 16 17 16 15 15 14 13 13 13 12 10 8 8 7 6 5 5 5 6 6 6 7 6 6 6 6 5 5 5 4 4 4 4 3 4 5 7 8 10 11 13 15
20 20 18 18 17 17 17 15 15 14 14 13 11 8 8 7 7 7 7 7 7 7 8 8 7 7 7 6 6 5 6 6 6 6 6 6 7 8 9 10 12 13 15 16
23 22 21 19 18 17 17 16 16 15 15 14 13 10 10 10 9 9 9 8 9 9 9 9 9 8 8 7 7 7 7 7 8 8 8 9 9 10 11 13 14 15 17 18
24 22 21 19 18 18 18 17 17 17 16 15 13 12 11 11 11 11 11 10 10 10 11 11 11 10 9 9 9 9 9 9 9 10 10 11 12 13 14 15 16 18 19 20
22 21 19 19 19 20 20 20 19 18 17 16 14 14 12 13 12 12 12 12 11 11 11 12 12 12 11 10 10 10 10 10 11 11 12 13 14 15 16 17 19 20 22 23
22 22 20 20 20 21 21 20 20 19 18 16 14 14 14 14 14 13 12 12 12 12 12 12 13 13 12 11 11 12 12 12 13 13 14 15 16 17 18 20 21 23 24 25
23 22 21 20 20 21 22 19 20 20 19 18 16 14 14 14 15 14 13 13 13 13 13 13 13 13 13 13 13 14 14 15 15 16 16 17 19 20 21 22 24 25 26 27
24 22 22 21 21 22 18 19 19 18 18 17 16 14 15 15 15 15 15 15 15 15 15 15 15 15 15 15 15 16 17 17 18 19 19 20 21 23 24 25 26 27 28 29
23 23 23 23 23 21 19 18 18 18 17 17 17 16 16 17 17 16 16 17 17 17 17 17 17 17 17 17 18 19 19 20 20 21 22 22 23 25 26 27 28 29 30 31
22 22 22 22 22 21 19 19 20 19 19 17 17 17 17 17 17 17 18 19 19 19 19 18 18 19 19 20 21 21 22 22 23 24 24 25 26 27 28 29 30 31 32 32
21 21 21 22 22 20 19 20 20 21 18 19 20 19 19 18 18 18 19 20 21 21 21 20 21 21 21 22 23 24 24 24 25 25 26 27 28 29 30 31 32 33 34 34
21 21 22 22 21 18 18 19 20 20 19 19 20 20 20 20 20 21 21 21 22 23 23 22 22 23 23 24 24 25 25 26 27 27 28 29 30 32 33 33 34 35 36 36
20 21 21 20 19 18 18 19 19 20 20 21 21 21 21 22 23 24 24 24 24 24 24 24 24 24 24 25 25 26 26 27 29 30 31 32 32 33 34 35 36 36 37 38
21 21 22 20 19 19 20 20 20 21 22 22 22 22 22 23 23 25 25 25 25 26 26 26 26 26 26 27 27 27 28 29 31 32 32 33 34 35 36 37 38 39 40 41
19 19 20 20 21 21 21 22 22 23 23 23 23 23 24 25 25 26 27 27 27 27 28 27 27 28 28 28 29 29 30 31 32 33 34 35 36 37 38 40 41 41 42 43
19 19 19 20 21 22 22 22 23 23 23 23 24 24 25 26 26 27 28 28 28 28 29 29 28 28 29 30 30 31 32 33 34 35 37 38 38 39 41 42 43 44 45 46